[[{"header":{"parameterUnit":"m.s-1","parameterCategory":1,"la1":30.2991,"la2":30.254,"lo1":-89.0895,"lo2":-89.0444,"dy":0.0017,"dx":0.0017,"nx":28,"ny":28,"refTime":"2025-01-05T03:00:00:Z","depth":0,"parameterNumber":2,"parameterNumberName":"U-component_of_WINDS"},"data":[0,0,0,0,0,0,0,0,0,0,0,0,0,0,0,0,0,0,0,0,0,0,0,0,0,0,0,0,0,0,0,0,0,0,0,0,0,0,0,0,0,0,0,0,0,0,0,0,0,0,0,0,0,0,0,0,0,0,-0.9523,-0.9525,0,-0.9648,-0.9649,-0.9651,-0.9703,-0.9703,-0.9703,-0.9702,-0.9827,-0.983,-0.9834,0,0,0,0,0,0,0,0,0,0,0,0,0,-0.9327,-0.933,-0.9523,-0.9525,-0.9526,-0.9648,-0.9649,-0.9651,-0.9703,-0.9703,-0.9703,-0.9702,-0.9826,-0.983,-0.9834,0,0,0,0,0,0,0,0,0,0,0,0,0,-0.9428,-0.9331,-0.9523,-0.9567,-0.9572,-0.9647,-0.9649,-0.9651,-0.9703,-0.9703,-0.9702,-0.9702,-0.9824,-0.983,-0.9835,-0.9874,0,0,-0.9851,-0.9853,0,0,0,0,0,0,0,0,-0.9422,-0.9435,-0.9559,-0.9564,-0.957,-0.966,-0.9626,-0.9726,-0.9703,-0.9653,-0.9702,-0.9702,-0.9771,-0.9781,-0.9805,-0.988,-0.9885,-0.9851,-0.9855,-0.9857,-0.9858,0,0,0,0,0,0,0,-0.9415,-0.943,-0.9573,-0.9561,-0.9568,-0.9579,-0.9593,-0.9645,-0.9713,-0.9658,-0.9662,-0.9676,-0.9774,-0.98,-0.9808,-0.9887,-0.9851,-0.9856,-0.9859,-0.9861,-1.0,-1.0,0,0,0,0,0,0,-0.9401,-0.9424,-0.9569,-0.9576,-0.9494,-0.9583,-0.9599,-0.9631,-0.9712,-0.9724,-0.9676,-0.9678,-0.9791,-0.9802,-0.9813,-0.9864,-0.9857,-0.9862,-0.9865,-0.9999,-1.0,-1.0,0,0,0,0,0,0,-0.9397,-0.9414,-0.9564,-0.9501,-0.9521,-0.9587,-0.9623,-0.9634,-0.9659,-0.9726,-0.9738,-0.969,-0.9791,-0.9805,-0.9859,-0.9869,-0.9864,-0.9869,-0.9998,-0.9999,-1.0,-0.9967,0,0,0,0,0,0,-0.9391,-0.9412,-0.9429,-0.9501,-0.9524,-0.9608,-0.9624,-0.9637,-0.9669,-0.9672,-0.9742,-0.9754,-0.9792,-0.985,-0.9864,-0.9876,-0.9873,-0.9998,-0.9999,-1.0,-0.9967,-0.9966,-0.9965,0,0,0,0,0,-0.9384,-0.9414,-0.9429,-0.9446,-0.9547,-0.9609,-0.9622,-0.9666,-0.9669,-0.9686,-0.9729,-0.9751,-0.9865,-0.9855,-0.9871,-0.9885,-0.9997,-0.9998,-1.0,-0.9968,-0.9966,-0.9965,0,0,0,0,0,0,-0.934,-0.9424,-0.9442,-0.9497,-0.9545,-0.9618,-0.964,-0.9664,-0.9711,-0.9713,-0.9764,-0.978,-0.9828,-0.9862,-0.9849,-0.9927,-0.9933,-0.9937,-0.9903,-0.9903,-0.9902,-0.9893,-0.9878,0,0,0,0,0,-0.9337,-0.9381,-0.9452,-0.9493,-0.9517,-0.9574,-0.9603,-0.9632,-0.9684,-0.9705,-0.9752,-0.98,-0.9847,-0.9877,-0.9923,-0.9972,-0.9987,-0.9989,-0.9988,-0.9987,-0.999,-1.0017,-1.0019,-1.0004,-1.0004,-1.0004,0,0,-0.933,-0.9382,-0.9407,-0.9486,-0.9527,-0.957,-0.9591,-0.9636,-0.9669,-0.9712,-0.9765,-0.98,-0.9858,-0.9908,-0.9933,-0.9938,-0.9998,-0.9989,-0.9987,-0.9991,-1.0019,-1.002,-1.0021,-1.0005,-1.0004,-1.0004,0,0,-0.9341,-0.9385,-0.9424,-0.9465,-0.9527,-0.9565,-0.9574,-0.9642,-0.9668,-0.9722,-0.9755,-0.9793,-0.9873,-0.9912,-0.9943,-0.9967,-0.9989,-0.998,-0.9976,-1.0002,-1.0003,-1.0004,-1.0012,-1.0015,-0.9983,-0.9983,-0.9983,0,-0.9326,-0.9394,-0.9441,-0.9485,-0.9518,-0.9559,-0.9598,-0.9634,-0.9708,-0.9729,-0.9734,-0.9834,-0.9876,-0.9936,-0.9941,-0.9965,-0.9976,-0.9973,-0.9999,-1.0001,-1.0003,-1.0011,-1.0014,-0.9981,-0.9982,-0.9982,-0.9982,0,-0.9371,-0.9418,-0.9441,-0.9512,-0.9548,-0.9589,-0.9641,-0.9671,-0.9697,-0.9734,-0.9787,-0.9839,-0.9896,-0.9912,-0.9938,-0.9976,-0.9977,-0.9989,-0.9997,-1.0002,-1.0011,-1.0014,-0.9979,-0.998,-0.998,-0.9981,0,0,-0.9359,-0.9455,-0.9463,-0.9495,-0.9566,-0.9602,-0.9644,-0.9701,-0.9725,-0.9774,-0.981,-0.9876,-0.9888,-0.9922,-0.9952,-0.9975,-0.999,-0.9985,-0.9987,-0.9984,-1.0033,-1.0024,-1.0027,-1.0005,-1.0005,-1.0006,-1.0029,0,-0.938,-0.9459,-0.9501,-0.9561,-0.9604,-0.9643,-0.9679,-0.9725,-0.976,-0.9801,-0.9839,-0.9884,-0.9897,-0.9918,-0.9942,-0.9983,-1.0,-0.9982,-1.0038,-1.0039,-1.0023,-1.0032,-1.0022,-1.0041,-1.0032,-1.0033,-1.0033,0,-0.9415,-0.9464,-0.9528,-0.9593,-0.9613,-0.9645,-0.97,-0.9739,-0.9791,-0.9815,-0.9852,-0.9882,-0.9926,-0.9929,-0.9991,-0.9977,-1.0002,-1.0025,-1.0027,-1.0034,-1.0037,-1.0039,-1.0048,-1.0051,-1.0039,-1.0039,-1.0038,0,-0.9399,-0.9481,-0.953,-0.9557,-0.9634,-0.9655,-0.9688,-0.9741,-0.9772,-0.9819,-0.9839,-0.9891,-0.9919,-0.9957,-0.9999,-0.9998,-1.0056,-1.0063,-1.0076,-1.0075,-1.0087,-1.0086,-1.01,-1.0102,-1.0102,-1.0102,-1.0102,0,-0.9418,-0.9456,-0.9525,-0.9555,-0.9598,-0.9645,-0.9686,-0.9722,-0.9768,-0.9805,-0.984,-0.9874,-0.9927,-0.9967,-1.0,-1.0045,-1.0057,-1.0077,-1.0085,-1.0074,-1.0071,-1.0091,-1.0091,-1.0103,-1.0103,-1.0103,-1.0103,0,-0.9409,-0.9456,-0.9512,-0.958,-0.9598,-0.9627,-0.9685,-0.9715,-0.9751,-0.9796,-0.981,-0.9866,-0.9915,-0.996,-1.0024,-1.0046,-1.0092,-1.0102,-1.0074,-1.0079,-1.009,-1.0088,-1.0118,-1.0124,-1.0121,-1.0121,-1.0121,0,-0.9418,-0.9448,-0.9519,-0.9547,-0.9579,-0.9623,-0.9655,-0.9702,-0.9734,-0.9796,-0.9818,-0.9869,-0.9912,-0.9987,-1.0033,-1.0082,-1.0094,-1.0101,-1.0102,-1.0089,-1.0095,-1.0092,-1.0095,-1.01,-1.01,-1.01,-1.01,0,-0.9429,-0.9451,-0.9496,-0.9549,-0.9586,-0.963,-0.9675,-0.9695,-0.9751,-0.9784,-0.9834,-0.9868,-0.9933,-0.9983,-1.0037,-1.007,-1.0094,-1.0099,-1.0105,-1.0094,-1.0077,-1.0086,-1.0072,-1.0099,-1.0099,-1.0099,-1.0099,-1.0099,-0.943,-0.9458,-0.9512,-0.9561,-0.96,-0.9641,-0.9672,-0.9712,-0.9755,-0.9813,-0.9838,-0.9888,-0.9939,-1.0014,-1.0046,-1.0085,-1.009,-1.0099,-1.0101,-1.0102,-1.01,-1.007,-1.0095,-1.0095,-1.0095,-1.0095,-1.0095,0,-0.9442,-0.9479,-0.9524,-0.9586,-0.9623,-0.9643,-0.9694,-0.9724,-0.9768,-0.9814,-0.9856,-0.9912,-0.9961,-1.001,-1.006,-1.0082,-1.0094,-1.0094,-1.0093,-1.01,-1.0092,-1.0082,-1.0083,-1.0083,-1.0083,-1.0083,-1.0083,-1.0083,-0.9454,-0.9503,-0.953,-0.9598,-0.9634,-0.9685,-0.9712,-0.9749,-0.9786,-0.9848,-0.9889,-0.9921,-0.9967,-1.0021,-1.0066,-1.0079,-1.0095,-1.0092,-1.0108,-1.01,-1.01,-1.0101,-1.0092,-1.0095,-1.0095,-1.0113,-1.0113,-1.0113]},{"header":{"parameterUnit":"m.s-1","parameterCategory":1,"la1":30.2991,"la2":30.254,"lo1":-89.0895,"lo2":-89.0444,"dy":0.0017,"dx":0.0017,"nx":28,"ny":28,"refTime":"2025-01-05T03:00:00:Z","depth":0,"parameterNumber":3,"parameterNumberName":"V-component_of_WINDS"},"data":[0,0,0,0,0,0,0,0,0,0,0,0,0,0,0,0,0,0,0,0,0,0,0,0,0,0,0,0,0,0,0,0,0,0,0,0,0,0,0,0,0,0,0,0,0,0,0,0,0,0,0,0,0,0,0,0,0,0,6.2114,6.2116,0,6.2212,6.2213,6.2214,6.2231,6.2231,6.223,6.2229,6.2323,6.2326,6.2329,0,0,0,0,0,0,0,0,0,0,0,0,0,6.1942,6.1945,6.2114,6.2116,6.2117,6.2211,6.2213,6.2214,6.2232,6.2231,6.223,6.2229,6.2322,6.2325,6.2329,0,0,0,0,0,0,0,0,0,0,0,0,0,6.2026,6.1946,6.2114,6.2137,6.214,6.2211,6.2213,6.2214,6.2232,6.2231,6.2229,6.2228,6.232,6.2325,6.233,6.2383,0,0,6.2344,6.2346,0,0,0,0,0,0,0,0,6.2021,6.2032,6.2133,6.2136,6.2139,6.2208,6.2186,6.227,6.2232,6.2197,6.2229,6.2228,6.2285,6.2293,6.2313,6.2387,6.2391,6.2345,6.2348,6.235,6.2351,0,0,0,0,0,0,0,6.2015,6.2028,6.2153,6.2134,6.2138,6.2142,6.2153,6.2202,6.2246,6.22,6.2201,6.2213,6.2287,6.2309,6.2316,6.2392,6.2345,6.2349,6.2352,6.2354,6.252,6.2521,0,0,0,0,0,0,6.2006,6.2023,6.215,6.2156,6.2076,6.2146,6.2158,6.2187,6.2246,6.2254,6.2214,6.2213,6.2301,6.231,6.2319,6.2389,6.235,6.2354,6.2357,6.2518,6.252,6.2522,0,0,0,0,0,0,6.2002,6.2017,6.2146,6.209,6.2107,6.215,6.2183,6.219,6.2212,6.2256,6.2264,6.2228,6.23,6.2312,6.2368,6.2392,6.2356,6.2361,6.2516,6.2519,6.2521,6.2526,0,0,0,0,0,0,6.1997,6.2015,6.2036,6.209,6.211,6.2194,6.2184,6.2192,6.2221,6.2221,6.2272,6.2279,6.23,6.2361,6.2373,6.2398,6.2365,6.2514,6.2517,6.252,6.2524,6.2528,6.2532,0,0,0,0,0,6.1991,6.2031,6.2037,6.2052,6.2137,6.2195,6.2206,6.2231,6.2222,6.2244,6.2274,6.2278,6.2387,6.2367,6.238,6.2407,6.2513,6.2517,6.252,6.2522,6.2527,6.2532,0,0,0,0,0,0,6.1975,6.2038,6.2046,6.2105,6.2145,6.2198,6.2225,6.2235,6.2277,6.2275,6.2303,6.2314,6.237,6.2394,6.2369,6.2464,6.245,6.2456,6.2446,6.2452,6.2456,6.2449,6.2369,0,0,0,0,0,6.1979,6.2023,6.2075,6.2122,6.2142,6.2181,6.2207,6.2224,6.2265,6.2282,6.2315,6.2354,6.2398,6.2426,6.2468,6.2527,6.254,6.2553,6.2557,6.256,6.2565,6.2603,6.261,6.2533,6.2533,6.2533,0,0,6.1986,6.2026,6.2051,6.212,6.2153,6.2198,6.2194,6.224,6.2274,6.2288,6.2345,6.2371,6.2416,6.2476,6.2503,6.2497,6.259,6.2564,6.2566,6.257,6.2607,6.2614,6.2621,6.2535,6.2535,6.2535,0,0,6.2023,6.2057,6.2103,6.2137,6.2189,6.2215,6.2226,6.2279,6.2299,6.2357,6.2369,6.2409,6.2483,6.2517,6.2543,6.2599,6.2606,6.2612,6.2633,6.2669,6.2675,6.2681,6.2704,6.2712,6.2617,6.2617,6.2617,0,6.2025,6.2095,6.2124,6.2172,6.2203,6.2222,6.2269,6.23,6.2361,6.2383,6.2375,6.2473,6.2504,6.2574,6.2588,6.2608,6.2623,6.2606,6.2672,6.2678,6.2684,6.2706,6.2715,6.2618,6.2618,6.2618,6.2617,0,6.2097,6.2145,6.2175,6.2239,6.2274,6.232,6.2357,6.2388,6.2403,6.243,6.2491,6.253,6.2584,6.2601,6.2613,6.2674,6.2669,6.2667,6.2653,6.2691,6.2713,6.2722,6.2619,6.2618,6.2618,6.2618,0,0,6.2123,6.2208,6.2218,6.225,6.2311,6.2348,6.2397,6.2452,6.248,6.2523,6.2566,6.263,6.2631,6.2661,6.2678,6.271,6.2757,6.2704,6.2706,6.2715,6.283,6.2833,6.2842,6.2762,6.2763,6.2765,6.2827,0,6.217,6.2261,6.2291,6.2366,6.2412,6.2433,6.2476,6.2518,6.2546,6.2589,6.2619,6.2666,6.266,6.268,6.2712,6.2744,6.2781,6.274,6.2803,6.2805,6.2793,6.2853,6.2855,6.2912,6.2836,6.2837,6.2838,0,6.2235,6.2285,6.2365,6.2426,6.2446,6.2485,6.2541,6.2581,6.2631,6.2649,6.2686,6.2702,6.2755,6.2739,6.2813,6.2785,6.2813,6.2833,6.2836,6.2844,6.2825,6.2865,6.2931,6.294,6.2851,6.285,6.2849,0,6.2251,6.2337,6.2398,6.2423,6.2494,6.2522,6.2552,6.26,6.2633,6.2682,6.2704,6.2756,6.2785,6.2826,6.2856,6.2841,6.293,6.2914,6.2947,6.2947,6.2965,6.2964,6.3039,6.298,6.298,6.2979,6.2979,0,6.2301,6.235,6.2407,6.2444,6.2501,6.2536,6.2591,6.2622,6.2666,6.2711,6.273,6.2771,6.2808,6.2854,6.2878,6.2939,6.2951,6.2968,6.2974,6.2967,6.2966,6.2986,6.2984,6.2982,6.2981,6.2981,6.298,0,6.2327,6.2367,6.2435,6.2499,6.2517,6.2556,6.261,6.2648,6.2678,6.2734,6.2749,6.2796,6.2852,6.2888,6.2957,6.2973,6.3041,6.3044,6.3025,6.3029,6.3061,6.3058,6.3153,6.3169,6.3097,6.3098,6.3098,0,6.2357,6.2396,6.2466,6.2499,6.2531,6.2583,6.2618,6.2655,6.2691,6.2754,6.2784,6.2842,6.2891,6.298,6.3019,6.3074,6.3081,6.311,6.3088,6.3083,6.3085,6.3083,6.3089,6.3114,6.3114,6.3115,6.3115,0,6.2406,6.2426,6.2477,6.2538,6.2581,6.2629,6.2677,6.2702,6.2747,6.2787,6.2847,6.2885,6.2959,6.3018,6.3077,6.3108,6.312,6.3122,6.3133,6.3128,6.3116,6.3126,6.3038,6.312,6.3119,6.3119,6.3119,6.3118,6.2437,6.2475,6.2533,6.2591,6.2632,6.2678,6.2718,6.2756,6.2807,6.2873,6.2891,6.2955,6.3007,6.3089,6.3122,6.3172,6.3167,6.3182,6.3187,6.319,6.3193,6.3108,6.3182,6.3182,6.3182,6.3182,6.3182,0,6.2491,6.253,6.2583,6.2653,6.27,6.271,6.2765,6.2803,6.286,6.2909,6.2959,6.3029,6.3087,6.3134,6.3194,6.3226,6.3233,6.324,6.3239,6.3247,6.3191,6.3178,6.3234,6.3234,6.3234,6.3234,6.3234,6.3234,6.2524,6.2591,6.2618,6.2706,6.2744,6.2809,6.2841,6.2884,6.2924,6.3004,6.3054,6.3085,6.3134,6.3199,6.3253,6.3266,6.3288,6.3295,6.3308,6.3256,6.325,6.3245,6.3232,6.3299,6.3299,6.336,6.336,6.3361]}]]